Weather History for Baker, MT

Change the Weather History Date:

Friday, December 7, 2012

  Actual Average Record
Temperature  
Mean Temperature 30 °F -  
Max Temperature 36 °F 36 °F 44 °F (1999)
Min Temperature 24 °F 26 °F -29 °F (2013)
Degree Days  
Heating Degree Days 35    
Moisture  
Dew Point 22 °F    
Average Humidity 77    
Maximum Humidity 86    
Minimum Humidity 59    
Precipitation  
Precipitation 0.01 in - - ()
Sea Level Pressure  
Sea Level Pressure 29.91 in    
Wind  
Wind Speed 4 mph (SW)    
Max Wind Speed 13 mph    
Max Gust Speed -    
Visibility 9 miles    
Events Snow    
Averages and records for this station are not official NWS values.
T = Trace of Precipitation, MM = Missing Value Source: NWS Daily Summary

Daily Weather History Graph

Daily Weather History Graph

Search for Another Location

Airport:

Trip Planner

Search our weather history database for the weather conditions in past years. The results will help you decide how hot, cold, wet, or windy it might be!

Date:

Astronomy

Dec. 07, 2012 Rise Set
Actual Time 7:26 AM MST 4:10 PM MST
Civil Twilight 6:52 AM MST 4:45 PM MST
Nautical Twilight 6:14 AM MST 5:23 PM MST
Astronomical Twilight 5:37 AM MST 5:59 PM MST
Moon 12:29 AM MST (12/7) 12:26 PM MST (12/7)
Length of Visible Light 9h 52m
Length of Day
8h 43m
Last Quarter, 38% of the Moon is Illuminated
Dec 7
Last Quarter
Dec 13
New
Dec 19
First Quarter
Dec 28
Full
Jan 4
Last Quarter

Hourly Weather History & Observations

Time (MST) Temp. Windchill Dew Point Humidity Pressure Visibility Wind Dir Wind Speed Gust Speed Precip Events Conditions
12:51 AM 28.0 °F - 19.0 °F 69% 29.94 in 10.0 mi Calm Calm - N/A   Clear
1:51 AM 28.0 °F - 19.0 °F 69% 29.94 in 10.0 mi Calm Calm - N/A   Overcast
2:51 AM 28.0 °F 24.2 °F 21.0 °F 75% 29.94 in 10.0 mi WNW 3.5 mph - N/A   Overcast
3:51 AM 27.0 °F - 21.0 °F 78% 29.95 in 10.0 mi Calm Calm - N/A   Overcast
4:51 AM 26.1 °F - 21.0 °F 81% 29.96 in 10.0 mi Calm Calm - N/A   Mostly Cloudy
5:51 AM 26.1 °F - 21.0 °F 81% 29.95 in 10.0 mi Calm Calm - N/A   Partly Cloudy
6:13 AM 24.8 °F - 19.4 °F 80% 29.87 in 10.0 mi Calm Calm - N/A   Mostly Cloudy
6:37 AM 26.6 °F 18.2 °F 23.0 °F 86% 29.88 in 10.0 mi SSW 8.1 mph - N/A   Scattered Clouds
6:51 AM 27.0 °F 19.5 °F 23.0 °F 85% 29.96 in 10.0 mi SSW 6.9 mph - N/A   Partly Cloudy
7:51 AM 25.0 °F 20.7 °F 21.0 °F 85% 29.96 in 10.0 mi NW 3.5 mph - N/A   Clear
8:51 AM 27.0 °F 23.0 °F 23.0 °F 85% 29.98 in 10.0 mi NW 3.5 mph - N/A   Clear
9:51 AM 30.9 °F 27.5 °F 26.1 °F 82% 29.98 in 10.0 mi WSW 3.5 mph - N/A   Clear
10:51 AM 32.0 °F 25.6 °F 26.1 °F 79% 29.97 in 10.0 mi WSW 6.9 mph - N/A   Mostly Cloudy
11:51 AM 36.0 °F 29.0 °F 25.0 °F 64% 29.94 in 10.0 mi WSW 9.2 mph - N/A   Partly Cloudy
12:51 PM 36.0 °F 28.5 °F 23.0 °F 59% 29.92 in 10.0 mi SW 10.4 mph - N/A   Clear
1:51 PM 35.1 °F 26.9 °F 21.9 °F 59% 29.91 in 10.0 mi SW 11.5 mph - N/A   Scattered Clouds
2:51 PM 34.0 °F 26.6 °F 23.0 °F 64% 29.90 in 10.0 mi SSW 9.2 mph - N/A   Overcast
3:51 PM 33.1 °F 24.4 °F 24.1 °F 70% 29.91 in 9.0 mi SSW 11.5 mph - 0.00 in   Overcast
4:33 PM 30.2 °F 26.7 °F 26.6 °F 86% 29.83 in 3.0 mi SW 3.5 mph - 0.00 in Snow Light Snow
4:43 PM 30.2 °F - 26.6 °F 86% 29.83 in 2.0 mi Calm Calm - 0.00 in Snow Light Snow
4:51 PM 30.9 °F - 26.1 °F 82% 29.91 in 2.0 mi Calm Calm - 0.00 in Snow Light Snow
5:04 PM 30.2 °F - 26.6 °F 86% 29.83 in 5.0 mi Calm Calm - 0.01 in Snow Light Snow
5:51 PM 28.9 °F 25.2 °F 25.0 °F 85% 29.91 in 10.0 mi South 3.5 mph - 0.01 in   Mostly Cloudy
6:51 PM 27.0 °F 18.7 °F 21.9 °F 81% 29.89 in 10.0 mi SW 8.1 mph - N/A   Clear
7:51 PM 26.1 °F 16.2 °F 21.0 °F 81% 29.88 in 10.0 mi SW 10.4 mph - N/A   Clear
8:51 PM 26.1 °F 16.2 °F 19.9 °F 78% 29.87 in 10.0 mi SW 10.4 mph - N/A   Clear
9:51 PM 27.0 °F 16.1 °F 19.9 °F 75% 29.83 in 10.0 mi SW 12.7 mph - N/A   Clear
10:51 PM 25.0 °F 13.6 °F 18.0 °F 75% 29.82 in 10.0 mi SW 12.7 mph - N/A   Clear
11:51 PM 24.1 °F 17.0 °F 17.1 °F 75% 29.79 in 10.0 mi South 5.8 mph - N/A   Clear